Weather History for Pensacola NAS, FL

Change the Weather History Date:

Friday, November 30, 2012

  Actual Average Record
Temperature  
Mean Temperature 57 °F -  
Max Temperature 66 °F 65 °F 77 °F (1998)
Min Temperature 48 °F 47 °F 30 °F (2003)
Degree Days  
Heating Degree Days 8    
Growing Degree Days 7 (Base 50)    
Moisture  
Dew Point 55 °F    
Average Humidity 88    
Maximum Humidity 94    
Minimum Humidity 75    
Precipitation  
Precipitation 0.00 in - - ()
Sea Level Pressure  
Sea Level Pressure 30.25 in    
Wind  
Wind Speed 5 mph (NE)    
Max Wind Speed 10 mph    
Max Gust Speed -    
Visibility 10 miles    
Events Rain    
Averages and records for this station are not official NWS values.
T = Trace of Precipitation, MM = Missing Value Source: NWS Daily Summary

Daily Weather History Graph

Daily Weather History Graph

Search for Another Location

Airport:

Trip Planner

Search our weather history database for the weather conditions in past years. The results will help you decide how hot, cold, wet, or windy it might be!

Date:

Astronomy

Nov. 30, 2012 Rise Set
Actual Time 6:27 AM CST 4:48 PM CST
Civil Twilight 6:01 AM CST 5:14 PM CST
Nautical Twilight 5:32 AM CST 5:44 PM CST
Astronomical Twilight 5:03 AM CST 6:13 PM CST
Moon 6:41 PM CST (11/30) 7:59 AM CST (11/30)
Length of Visible Light 11h 12m
Length of Day
10h 20m
Waning Gibbous, 96% of the Moon is Illuminated
Nov 30
Waning Gibbous
Dec 6
Last Quarter
Dec 13
New
Dec 19
First Quarter
Dec 28
Full

Hourly Weather History & Observations

Time (CST) Temp. Dew Point Humidity Pressure Visibility Wind Dir Wind Speed Gust Speed Precip Events Conditions
12:13 AM 50.0 °F 48.2 °F 94% 30.27 in 10.0 mi North 3.5 mph - N/A   Mostly Cloudy
12:44 AM 50.0 °F 48.2 °F 94% 30.27 in 10.0 mi North 3.5 mph - N/A   Scattered Clouds
12:56 AM 48.9 °F 46.9 °F 93% 30.27 in 10.0 mi Calm Calm - N/A   Clear
1:56 AM 50.0 °F 48.0 °F 93% 30.28 in 10.0 mi North 4.6 mph - N/A   Scattered Clouds
2:56 AM 50.0 °F 48.0 °F 93% 30.27 in 10.0 mi NE 5.8 mph - N/A   Partly Cloudy
3:56 AM 51.1 °F 48.0 °F 89% 30.26 in 10.0 mi ENE 6.9 mph - N/A   Clear
4:56 AM 50.0 °F 48.0 °F 93% 30.27 in 10.0 mi NE 4.6 mph - N/A   Clear
5:56 AM 51.1 °F 48.9 °F 92% 30.28 in 10.0 mi NE 5.8 mph - N/A   Mostly Cloudy
6:56 AM 53.1 °F 51.1 °F 93% 30.28 in 10.0 mi ENE 8.1 mph - N/A   Mostly Cloudy
7:56 AM 55.9 °F 53.1 °F 90% 30.29 in 10.0 mi ENE 8.1 mph - N/A   Mostly Cloudy
8:56 AM 59.0 °F 55.0 °F 87% 30.29 in 10.0 mi ENE 10.4 mph - N/A   Scattered Clouds
9:56 AM 63.0 °F 57.0 °F 81% 30.30 in 10.0 mi East 8.1 mph - N/A   Scattered Clouds
10:56 AM 64.9 °F 59.0 °F 81% 30.29 in 10.0 mi ENE 8.1 mph - N/A   Mostly Cloudy
11:56 AM 66.9 °F 59.0 °F 76% 30.26 in 10.0 mi ENE 10.4 mph - N/A   Mostly Cloudy
12:56 PM 66.0 °F 57.9 °F 75% 30.23 in 10.0 mi ENE 8.1 mph - N/A   Mostly Cloudy
1:56 PM 64.9 °F 57.9 °F 78% 30.22 in 10.0 mi ENE 6.9 mph - N/A   Mostly Cloudy
2:56 PM 64.9 °F 59.0 °F 81% 30.21 in 10.0 mi ENE 6.9 mph - N/A   Mostly Cloudy
3:56 PM 64.9 °F 60.1 °F 84% 30.22 in 10.0 mi NE 4.6 mph - N/A   Mostly Cloudy
4:56 PM 64.9 °F 60.1 °F 84% 30.22 in 10.0 mi ENE 4.6 mph - 0.00 in Rain Light Rain
5:56 PM 64.0 °F 61.0 °F 90% 30.22 in 10.0 mi ENE 4.6 mph - 0.00 in   Mostly Cloudy
6:56 PM 64.0 °F 60.1 °F 87% 30.23 in 10.0 mi East 4.6 mph - N/A   Mostly Cloudy
7:56 PM 61.0 °F 59.0 °F 93% 30.24 in 10.0 mi ENE 4.6 mph - N/A   Mostly Cloudy
8:56 PM 61.0 °F 57.9 °F 90% 30.24 in 10.0 mi ENE 4.6 mph - N/A   Mostly Cloudy
9:56 PM 61.0 °F 59.0 °F 93% 30.24 in 10.0 mi ENE 3.5 mph - N/A   Mostly Cloudy
10:56 PM 61.0 °F 59.0 °F 93% 30.24 in 10.0 mi East 4.6 mph - N/A   Overcast
11:56 PM 61.0 °F 59.0 °F 93% 30.23 in 10.0 mi Calm Calm - N/A   Overcast